Galeao, Brazil

10:03 PM -02 on January 16, 2018 (GMT -0200)
Galeao-Antonio C Jobim International

Weather History for SBGL - September, 2013

Change the Weather History Date:

Wednesday, September 4, 2013

  Actual Average Record
Temperature  
Mean Temperature 67 °F -  
Max Temperature 68 °F 78 °F 98 °F (2008)
Min Temperature 66 °F 64 °F 53 °F (2011)
Cooling Degree Days 2    
Growing Degree Days 17 (Base 50)    
Moisture  
Dew Point 64 °F    
Average Humidity 89    
Maximum Humidity 94    
Minimum Humidity 81    
Precipitation  
Precipitation 0.55 in - - ()
Sea Level Pressure  
Sea Level Pressure 30.13 in    
Wind  
Wind Speed 4 mph ()    
Max Wind Speed 8 mph    
Max Gust Speed -    
Visibility 3.7 miles    
Events Rain    
Averages and records for this station are not official NWS values.
T = Trace of Precipitation, MM = Missing Value Source: Averaged Metar Reports

Daily Weather History Graph

Daily Weather History Graph

Search for Another Location

Airport or City:

Trip Planner

Search our weather history database for the weather conditions in past years. The results will help you decide how hot, cold, wet, or windy it might be!

Date:

Astronomy

Sep. 04, 2013 Rise Set
Actual Time 6:00 AM -03 5:43 PM -03
Civil Twilight 5:37 AM -03 6:06 PM -03
Nautical Twilight 5:11 AM -03 6:32 PM -03
Astronomical Twilight 4:45 AM -03 6:58 PM -03
Moon 5:07 AM -03 (9/4) 5:06 PM -03 (9/4)
Length of Visible Light 12h 28m
Length of Day
11h 43m
Waning Crescent, 1% of the Moon is Illuminated
Sep 4
Waning Crescent
Sep 5
New
Sep 12
First Quarter
Sep 19
Full
Sep 27
Last Quarter

Hourly Weather History & Observations

Time (-03) Temp. Dew Point Humidity Pressure Visibility Wind Dir Wind Speed Gust Speed Precip Events Conditions
12:00 AM 69 °F 66 °F 88% 30.09 in 5 mi WNW 5.8 mph - - Rain Light Rain
12:00 AM 69.8 °F 66.2 °F 88% 30.06 in 5.0 mi WNW 5.8 mph - N/A Rain Light Rain
1:00 AM 68.0 °F 66.2 °F 94% 30.06 in 5.0 mi NW 5.8 mph - N/A Rain Light Rain
1:35 AM 68.0 °F 64.4 °F 88% 30.06 in 3.1 mi NW 5.8 mph - N/A Rain Rain
2:00 AM 68.0 °F 64.4 °F 88% 30.06 in 3.7 mi NW 8.1 mph - N/A Rain Light Rain
2:10 AM 68.0 °F 64.4 °F 88% 30.04 in 3.1 mi NNW 8.1 mph - N/A Rain Rain
3:00 AM 67 °F 65 °F 89% 30.04 in 5 mi North 2.3 mph - - Rain Light Rain
3:00 AM 68.0 °F 64.4 °F 88% 30.04 in 5.0 mi North 2.3 mph - N/A Rain Light Rain
4:00 AM 68.0 °F 64.4 °F 88% 30.04 in 5.0 mi West 4.6 mph - N/A Rain Light Rain
5:00 AM 66.2 °F 62.6 °F 88% 30.06 in 5.0 mi West 1.2 mph - N/A Rain Light Rain
6:00 AM 67 °F 64 °F 86% 30.10 in 4 mi NNW 2.3 mph - - Rain Light Rain
6:00 AM 68.0 °F 64.4 °F 88% 30.09 in 3.7 mi NNW 2.3 mph - N/A Rain Light Rain
6:30 AM 68.0 °F 64.4 °F 88% 30.09 in 3.7 mi WNW 6.9 mph - N/A Rain Light Rain
7:00 AM 66.2 °F 64.4 °F 94% 30.09 in 3.7 mi NW 4.6 mph - N/A Rain Light Rain
8:00 AM 66.2 °F 64.4 °F 94% - 2.5 mi North 3.5 mph - N/A Rain Light Rain
9:00 AM 67 °F 65 °F 90% 30.16 in 2 mi West 3.5 mph - - Rain Light Rain
9:00 AM 68.0 °F 64.4 °F 88% - 2.5 mi West 3.5 mph - N/A Rain Light Rain
10:00 AM 68.0 °F 64.4 °F 88% 30.15 in 4.3 mi NW 2.3 mph - N/A Rain Light Rain
11:00 AM 68.0 °F 64.4 °F 88% - 3.1 mi NNW 3.5 mph - N/A Rain Light Rain
12:00 PM 68 °F 65 °F 87% 30.16 in 2 mi WNW 2.3 mph - -   Overcast
12:00 PM 68.0 °F 64.4 °F 88% - 2.5 mi WNW 2.3 mph - N/A Rain Light Rain
1:00 PM 68.0 °F 64.4 °F 88% - 2.5 mi NNW 2.3 mph - N/A Rain Light Rain
2:00 PM 68.0 °F 66.2 °F 94% - 2.5 mi North 2.3 mph - N/A Rain Light Rain
3:00 PM 67 °F 64 °F 89% 30.13 in 3 mi NNE 2.3 mph - - Rain Light Rain
3:00 PM 68.0 °F 64.4 °F 88% - 3.1 mi NNE 2.3 mph - N/A Rain Light Rain
4:00 PM 66.2 °F 64.4 °F 94% 3.01 in 1.2 mi ENE 3.5 mph - N/A Rain Rain
5:00 PM 66.2 °F 62.6 °F 88% - 2.5 mi ESE 8.1 mph - N/A Rain Light Rain
6:00 PM 67 °F 64 °F 85% 30.19 in 5 mi SE 8.1 mph - - Rain Light Rain
6:00 PM 68.0 °F 64.4 °F 88% 30.18 in 5.0 mi SE 8.1 mph - N/A   Mostly Cloudy
6:35 PM 68.0 °F 62.6 °F 83% 30.18 in 6.2 mi East 6.9 mph - N/A   Mostly Cloudy
7:00 PM 68.0 °F 62.6 °F 83% 30.18 in 6.2 mi East 6.9 mph - N/A   Mostly Cloudy
8:00 PM 68.0 °F 64.4 °F 88% 30.21 in 6.2 mi ESE 2.3 mph - N/A   Mostly Cloudy
9:00 PM 68 °F 64 °F 81% 30.23 in 4 mi NNE 3.5 mph - - Rain Light Rain
9:00 PM 68.0 °F 64.4 °F 88% 30.21 in 4.3 mi NNE 3.5 mph - N/A Rain Light Rain
9:25 PM 66.2 °F 62.6 °F 88% 30.24 in 3.1 mi West 3.5 mph - N/A Rain Light Rain
9:40 PM 66.2 °F 62.6 °F 88% 30.24 in 1.9 mi SW 5.8 mph - N/A Rain Rain
10:00 PM 66.2 °F 64.4 °F 94% 30.24 in 1.6 mi SSE 6.9 mph - N/A Rain Rain
11:00 PM 66.2 °F 64.4 °F 94% 30.24 in 1.6 mi SE 5.8 mph - N/A Rain Rain